Flag Weather past 2 weeks in Des Moines, Iowa, U.S.A.

Now
18 °F

Light snow. Mostly cloudy.


Feels Like: 3 °F
Forecast: 12 / 24 °F
Wind: 16 mph from North

Location: Des Moines International Airport

Current Time: Nov 27, 2014 at 3:55:25 AM

Latest Report: Nov 27, 2014 at 2:54 AM


Visibility: 9 mi

Pressure: 30.48 "Hg

Humidity: 77%

Dew point: 12 °F

Location of Des MoinesLocation

Historic Weather in Des Moines — Graph

°F

Des Moines temperature yesterday

Maximum temperature yesterday: 33 °F (at 12:54 AM)
Minimum temperature yesterday: 22 °F (at 11:54 PM)
Average temperature yesterday: 30 °F

Past Weeks' High & Low Weather Summary

 TemperatureHumidityPressure
High57 °F (Nov 22, 7:54 PM)97% (Nov 22, 6:54 AM)30.52 "Hg (Nov 22, 6:54 AM)
Low8 °F (Nov 18, 1:54 AM)27% (Nov 25, 2:54 PM)29.34 "Hg (Nov 23, 2:54 PM)
Average27 °F68%30.12 "Hg
* Reported Nov 12 1:54 AM — Nov 27 1:54 AM, Des Moines, Weather by CustomWeather, © 2014

Note: Actual official high and low records may vary slightly from our data, if they occured in-between our weather recording intervals... More about our weather records

Advertising

Des Moines weather history for previous 24 hours

 ConditionsComfort  
Time TempWeatherWind HumidityBarometerVisibility
1:54 AM
Nov 27
20 °FLight snow. Overcast.22 mph82%30.46 "Hg9 mi
12:54 AM21 °FLight snow. Overcast.12 mph81%30.44 "Hg10 mi
11:54 PM
Nov 26
22 °FLight snow. Overcast.14 mph82%30.42 "Hg7 mi
10:54 PM24 °FLight snow. Low clouds.17 mph81%30.41 "Hg9 mi
9:54 PM24 °FLight snow. Ice fog.13 mph84%30.37 "Hg6 mi
8:54 PM25 °FLight snow. Ice fog.16 mph85%30.34 "Hg5 mi
7:54 PM29 °FLight snow. Ice fog.13 mph85%30.31 "Hg2 mi
6:54 PM30 °FLight snow. Ice fog.14 mph85%30.27 "Hg2 mi
5:54 PM31 °FLight snow. Ice fog.14 mph85%30.22 "Hg2 mi
4:54 PM32 °FLight snow. Low clouds.14 mph82%30.19 "Hg6 mi
3:54 PM32 °FLight snow. Low clouds.10 mph82%30.14 "Hg5 mi
2:54 PM32 °FLight snow. Low clouds.13 mph82%30.09 "Hg7 mi
1:54 PM32 °FLight snow. Low clouds.12 mph82%30.04 "Hg7 mi
12:54 PM32 °FLight snow. Low clouds.9 mph82%30.01 "Hg7 mi
11:54 AM31 °FLight snow. Ice fog.8 mph85%29.99 "Hg1 mi
10:54 AM30 °FLight snow. Ice fog.10 mph89%29.98 "Hg2 mi
9:54 AM30 °FLight snow. Ice fog.9 mph85%29.96 "Hg2 mi
8:54 AM30 °FLight snow. Ice fog.9 mph85%29.93 "Hg3 mi
7:54 AM30 °FLight freezing rain. Ice fog.8 mph89%29.91 "Hg3 mi
6:54 AM30 °FLight snow. Ice fog.10 mph89%29.90 "Hg2 mi
5:54 AM30 °FLight snow. Ice fog.12 mph89%29.90 "Hg1 mi
4:54 AM30 °FLight snow. Ice fog.12 mph89%29.90 "Hg1 mi
3:54 AM31 °FLight snow. Ice fog.9 mph85%29.93 "Hg2 mi
Weather by CustomWeather, © 2014

See weather overviewHow to use our weather pages